Location: La Oliva
(42.2466°N, 2.9955°E)
Time: 10:32:22
(UTC+00:00)

BREEZE-M DEB (TANK) - Pass Details

Date: 22 April 2021
Orbit: 289 x 13025 km, 49.6° (Epoch: 10 May)

Event Time Altitude Azimuth Distance (km) Brightness Sun altitude
Rises 19:09:31 0° 262° (W) 2,295 6.6 -6.4°
Reaches altitude 10° 19:10:53 10° 268° (W) 1,674 6.0 -6.6°
Maximum altitude 19:14:09 55° 348° (NNW) 965 3.8 -7.2°
Drops below altitude 10° 19:24:06 10° 65° (ENE) 4,939 6.8 -8.8°
Sets 19:31:34 0° 70° (ENE) 7,820 7.8 -10.1°
